Flag for Canada Weather past 2 weeks in Richmond, British Columbia, Canada

36 °F


Feels Like: 29 °F
Forecast: 31 / 41 °F
Wind: 8 mph from Southeast

Location: Vancouver International Airport

Current Time: Nov 24, 2015 at 8:21:29 PM

Latest Report: Nov 24, 2015 at 7:00 PM

Visibility: 20 mi

Pressure: 30.16 "Hg

Humidity: 60%

Dew point: 23 °F

Location of RichmondLocation

Historic Weather in Richmond — Graph


Richmond temperature yesterday

Maximum temperature yesterday: 41 °F (at 12:00 AM)
Minimum temperature yesterday: 37 °F (at 4:00 AM)
Average temperature yesterday: 40 °F

Past Weeks' High & Low Weather Summary

High55 °F (Nov 17, 12:00 PM)100% (Nov 9, 9:00 PM)30.60 "Hg (Nov 9, 9:00 PM)
Low28 °F (Nov 20, 6:00 AM)46% (Nov 24, 3:00 PM)29.34 "Hg (Nov 17, 12:00 PM)
Average42 °F85%30.01 "Hg
* Reported Nov 9 6:00 PM — Nov 24 6:00 PM, Richmond, Weather by CustomWeather, © 2015

Note: Actual official high and low records may vary slightly from our data, if they occured in-between our weather recording intervals... More about our weather records


Richmond weather history for previous 24 hours

Time TempWeatherWind HumidityBarometerVisibility
6:00 PM
Tue, Nov 24
36 °FClear.12 mph60%30.14 "Hg20 mi
5:00 PM39 °FClear.9 mph56%30.11 "Hg30 mi
4:00 PM43 °FSunny.5 mph66%30.08 "Hg30 mi
3:00 PM46 °FSunny.3 mph46%30.04 "Hg30 mi
2:00 PM46 °FPassing clouds.5 mph57%30.03 "Hg30 mi
1:00 PM46 °FPassing clouds.5 mph50%30.01 "Hg25 mi
12:00 PM46 °FPassing clouds.2 mph53%30.00 "Hg30 mi
11:00 AM45 °FPassing clouds.3 mph57%29.99 "Hg30 mi
10:00 AM41 °FPassing clouds.5 mph70%29.97 "Hg30 mi
9:00 AM34 °FPassing clouds.6 mph93%29.93 "Hg30 mi
8:00 AM36 °FScattered clouds.No wind87%29.90 "Hg30 mi
7:04 AM36 °FPassing clouds.5 mph87%29.86 "Hg20 mi
7:00 AM37 °FPassing clouds.5 mph87%29.86 "Hg20 mi
6:00 AM37 °FOvercast.2 mph93%29.84 "Hg15 mi
5:00 AM39 °FOvercast.5 mph87%29.81 "Hg15 mi
4:00 AM41 °FMostly cloudy.16 mph87%29.79 "Hg15 mi
3:00 AM37 °FMostly cloudy.8 mph100%29.78 "Hg15 mi
2:00 AM37 °FLight rain. Mostly cloudy.3 mph93%29.78 "Hg8 mi
1:00 AM39 °FLight rain. Mostly cloudy.3 mph87%29.78 "Hg8 mi
12:00 AM37 °FLight rain. Partly cloudy.6 mph93%29.78 "Hg8 mi
11:00 PM
Mon, Nov 23
39 °FLight rain. Mostly cloudy.5 mph87%29.77 "Hg8 mi
10:00 PM39 °FLight rain. Mostly cloudy.7 mph93%29.77 "Hg8 mi
9:00 PM39 °FLight rain. Overcast.7 mph93%29.76 "Hg8 mi
8:00 PM39 °FLight rain. Mostly cloudy.6 mph93%29.77 "Hg8 mi
Weather by CustomWeather, © 2015

See weather overviewHow to use our weather pages